Location: G�yn�k
(36.6721°N, 30.5542°E)
Time: 21:53:04
(UTC+00:00)

BREEZE-M DEB (TANK) - Pass Details

Date: 10 October 2020
Orbit: 333 x 12040 km, 49.7° (Epoch: 26 October)

Event Time Altitude Azimuth Distance (km) Brightness Sun altitude
Rises 01:00:42 0° 202° (SSW) 12,602 8.7 -36.4°
Reaches altitude 10° 01:09:50 10° 199° (SSW) 12,800 8.7 -34.7°
Maximum altitude 02:45:16 79° 125° (SE) 10,566 8.5 -16.0°
Drops below altitude 10° 03:31:07 10° 53° (NE) 7,884 8.8 -6.8°
Sets 03:34:57 0° 53° (NE) 8,086 8.9 -6.0°
